JCSAT-17

Last updated on Sat Aug 22 2026 00:03:00 GMT+0000 (Coordinated Universal Time)

1 45245U 20013A 26233.29529904 -.00000311 00000+0 00000+0 0 9996 2 45245 5.3947 357.4643 0004051 156.6584 57.8054 1.00272233 23887
UTC large
Height (km)
Speed (km/s)
/
Latitude / Longitude
Inclination (degrees)
Orbital Period (minutes)
Azimuth
Elevation
Range (km)
Doppler Factor

Next 0 passes for location: London (51.5072 / 0.1276)

No passes found over London.
JCSAT-17